{"data":{"norad_id":52116,"epoch":"2026-05-25T02:51:16.905024Z","epoch_age_seconds":64668,"freshness":"FRESH","line1":"1 52116U 22029AE  26145.11894566 -.00001114  00000+0 -51932-4 0  9990","line2":"2 52116  53.2134  96.0145 0001230 104.9011 255.2118 15.08832950232329","mean_motion":15.0883295,"eccentricity":0.000123,"inclination_deg":53.2134,"raan_deg":96.0145,"arg_perigee_deg":104.9011,"mean_anomaly_deg":255.2118,"bstar":-5.1932e-5,"rev_number":23232,"period_min":95.438000608351,"perigee_km":538.91403613923,"apogee_km":540.615840016,"semimajor_km":6917.9019380776,"source":"CELESTRAK","updated_at":"2026-05-25T13:38:17.074335Z"}}